Weather History for K06D - July, 2013

Change the Weather History Date:

Thursday, July 4, 2013

  Actual Average (KRUG) Record (KRUG)
Temperature  
Mean Temperature 70 °F -  
Max Temperature 77 °F 81 °F 101 °F (1989)
Min Temperature 62 °F 54 °F 40 °F (1992)
Cooling Degree Days 4    
Growing Degree Days 20 (Base 50)    
Moisture  
Dew Point 62 °F    
Average Humidity 76    
Maximum Humidity 100    
Minimum Humidity 56    
Precipitation  
Precipitation 0.10 in - - ()
Sea Level Pressure  
Sea Level Pressure 29.77 in    
Wind  
Wind Speed 10 mph (NW)    
Max Wind Speed 18 mph    
Max Gust Speed 22 mph    
Visibility 10 miles    
Events Rain , Thunderstorm    
Averages and records for this station are not official NWS values.
T = Trace of Precipitation, MM = Missing Value Source: NWS Daily Summary

Daily Weather History Graph

Daily Weather History Graph

Search for Another Location

Airport or City:

Trip Planner

Search our weather history database for the weather conditions in past years. The results will help you decide how hot, cold, wet, or windy it might be!

Date:

Astronomy

Jul. 04, 2013 Rise Set
Actual Time 5:41 AM CDT 9:44 PM CDT
Civil Twilight 4:59 AM CDT 10:26 PM CDT
Nautical Twilight 4:00 AM CDT 11:24 PM CDT
Astronomical Twilight 2:10 AM CDT 1:11 AM CDT
Moon 3:06 AM CDT (7/4) 6:44 PM CDT (7/4)
Length of Visible Light 17h 26m
Length of Day
16h 03m
Waning Crescent, 11% of the Moon is Illuminated
Jul 4
Waning Crescent
Jul 8
New
Jul 15
First Quarter
Jul 22
Full
Jul 29
Last Quarter

Hourly Weather History & Observations

Time (CDT) Temp. Dew Point Humidity Pressure Visibility Wind Dir Wind Speed Gust Speed Precip Events Conditions
12:15 AM 69.8 °F 53.6 °F 56% 29.81 in 10.0 mi South 12.7 mph 19.6 mph N/A   Clear
12:35 AM 68.0 °F 53.6 °F 60% 29.80 in 10.0 mi South 11.5 mph - N/A   Clear
12:55 AM 68.0 °F 53.6 °F 60% 29.80 in 10.0 mi South 8.1 mph - N/A   Clear
1:15 AM 68.0 °F 53.6 °F 60% 29.79 in 10.0 mi South 10.4 mph 16.1 mph N/A   Clear
1:35 AM 66.2 °F 53.6 °F 64% 29.79 in 10.0 mi South 10.4 mph - N/A   Partly Cloudy
1:55 AM 66.2 °F 53.6 °F 64% 29.79 in 10.0 mi SSW 9.2 mph - N/A   Partly Cloudy
2:15 AM 66.2 °F 55.4 °F 68% 29.78 in 10.0 mi South 9.2 mph - N/A   Partly Cloudy
2:35 AM 66.2 °F 55.4 °F 68% 29.78 in 10.0 mi SSW 9.2 mph - N/A   Scattered Clouds
2:55 AM 64.4 °F 55.4 °F 73% 29.80 in 10.0 mi SW 6.9 mph - N/A   Scattered Clouds
3:15 AM 64.4 °F 55.4 °F 73% 29.80 in 10.0 mi South 5.8 mph - N/A   Scattered Clouds
3:35 AM 66.2 °F 57.2 °F 73% 29.80 in 10.0 mi SSE 4.6 mph - N/A   Scattered Clouds
3:55 AM 66.2 °F 57.2 °F 73% 29.79 in 10.0 mi SSE 4.6 mph - N/A   Scattered Clouds
4:15 AM 64.4 °F 57.2 °F 77% 29.83 in 10.0 mi NNW 10.4 mph - N/A Rain , Thunderstorm Light Rain
4:35 AM 64.4 °F 59.0 °F 83% 29.83 in 10.0 mi NNW 10.4 mph - 0.01 in Rain , Thunderstorm Light Rain
4:55 AM 64.4 °F 60.8 °F 88% 29.83 in 10.0 mi NW 12.7 mph - 0.03 in Rain , Thunderstorm Light Rain
5:15 AM 64.4 °F 60.8 °F 88% 29.82 in 10.0 mi West 9.2 mph - N/A Rain , Thunderstorm Light Rain
5:35 AM 64.4 °F 62.6 °F 94% 29.81 in 5.0 mi South 8.1 mph - 0.03 in Rain Rain
5:55 AM 64.4 °F 60.8 °F 88% 29.74 in 7.0 mi SSE 13.8 mph - 0.07 in Rain Light Rain
6:15 AM 64.4 °F 59.0 °F 83% 29.71 in 10.0 mi South 18.4 mph 21.9 mph N/A   Mostly Cloudy
6:35 AM 64.4 °F 60.8 °F 88% 29.72 in 10.0 mi South 9.2 mph - N/A   Partly Cloudy
6:55 AM 64.4 °F 59.0 °F 83% 29.71 in 10.0 mi SSW 15.0 mph 21.9 mph N/A   Clear
7:15 AM 62.6 °F 60.8 °F 94% 29.72 in 10.0 mi SSW 6.9 mph - N/A   Clear
7:35 AM 64.4 °F 60.8 °F 88% 29.72 in 10.0 mi SSE 4.6 mph - N/A   Clear
7:55 AM 66.2 °F 62.6 °F 88% 29.73 in 10.0 mi SW 6.9 mph - N/A   Clear
8:15 AM 66.2 °F 62.6 °F 88% 29.74 in 10.0 mi SSW 8.1 mph - N/A   Clear
8:35 AM 68.0 °F 62.6 °F 83% 29.74 in 10.0 mi WSW 11.5 mph - N/A   Clear
8:55 AM 68.0 °F 62.6 °F 83% 29.75 in 10.0 mi West 12.7 mph - N/A   Clear
9:15 AM 68.0 °F 60.8 °F 78% 29.75 in 10.0 mi WSW 12.7 mph - N/A   Clear
9:35 AM 69.8 °F 62.6 °F 78% 29.75 in 10.0 mi WSW 10.4 mph - N/A   Clear
9:55 AM 71.6 °F 62.6 °F 73% 29.75 in 10.0 mi West 10.4 mph - N/A   Clear
10:15 AM 71.6 °F 62.6 °F 73% 29.74 in 10.0 mi WSW 9.2 mph - N/A   Clear
10:35 AM 73.4 °F 62.6 °F 69% 29.74 in 10.0 mi West 5.8 mph - N/A   Clear
10:55 AM 73.4 °F 62.6 °F 69% 29.75 in 10.0 mi NNW 5.8 mph - N/A   Mostly Cloudy
11:15 AM 73.4 °F 64.4 °F 73% 29.74 in 10.0 mi North 6.9 mph - N/A   Unknown
11:35 AM 75.2 °F 64.4 °F 69% 29.74 in 10.0 mi North 6.9 mph - N/A   Unknown
11:55 AM 75.2 °F 64.4 °F 69% 29.74 in 10.0 mi NW 9.2 mph - N/A   Unknown
12:15 PM 75.2 °F 64.4 °F 69% 29.74 in 10.0 mi NNW 9.2 mph - N/A   Unknown
12:35 PM 75.2 °F 64.4 °F 69% 29.75 in 10.0 mi NNW 9.2 mph - N/A   Unknown
12:55 PM 75.2 °F 64.4 °F 69% 29.75 in 10.0 mi NNW 11.5 mph - N/A   Unknown
1:15 PM 75.2 °F 64.4 °F 69% 29.75 in 10.0 mi NNW 9.2 mph - N/A   Unknown
1:35 PM 75.2 °F 64.4 °F 69% 29.76 in 10.0 mi NNW 11.5 mph - N/A   Unknown
1:55 PM 75.2 °F 66.2 °F 73% 29.76 in 10.0 mi NNW 13.8 mph - N/A   Overcast
2:15 PM 73.4 °F 66.2 °F 78% 29.76 in 10.0 mi North 13.8 mph - N/A   Overcast
2:35 PM 73.4 °F 64.4 °F 73% 29.76 in 10.0 mi NW 16.1 mph - N/A   Overcast
2:55 PM 71.6 °F 64.4 °F 78% 29.77 in 10.0 mi NNW 12.7 mph - N/A   Overcast
3:15 PM 73.4 °F 66.2 °F 78% 29.78 in 10.0 mi NNW 16.1 mph - N/A   Overcast
3:35 PM 71.6 °F 64.4 °F 78% 29.78 in 10.0 mi NNW 12.7 mph - N/A   Overcast
3:55 PM 71.6 °F 64.4 °F 78% 29.78 in 10.0 mi NNW 10.4 mph - N/A   Overcast
4:15 PM 73.4 °F 64.4 °F 73% 29.78 in 10.0 mi NNW 6.9 mph - N/A   Overcast
4:35 PM 73.4 °F 64.4 °F 73% 29.77 in 10.0 mi North 12.7 mph - N/A   Overcast
4:55 PM 73.4 °F 64.4 °F 73% 29.78 in 10.0 mi NW 12.7 mph - N/A   Overcast
5:15 PM 75.2 °F 64.4 °F 69% 29.77 in 10.0 mi NNW 13.8 mph - N/A   Mostly Cloudy
5:35 PM 77.0 °F 64.4 °F 65% 29.77 in 10.0 mi NNW 16.1 mph - N/A   Overcast
5:55 PM 77.0 °F 64.4 °F 65% 29.76 in 10.0 mi North 15.0 mph 18.4 mph N/A   Mostly Cloudy
6:15 PM 77.0 °F 64.4 °F 65% 29.76 in 10.0 mi North 16.1 mph - N/A   Partly Cloudy
6:35 PM 77.0 °F 64.4 °F 65% 29.76 in 10.0 mi North 15.0 mph - N/A   Clear
6:55 PM 77.0 °F 64.4 °F 65% 29.76 in 10.0 mi North 12.7 mph - N/A   Clear
7:15 PM 77.0 °F 64.4 °F 65% 29.76 in 10.0 mi NNW 12.7 mph - N/A   Scattered Clouds
7:35 PM 77.0 °F 64.4 °F 65% 29.76 in 10.0 mi NNW 15.0 mph - N/A   Scattered Clouds
7:55 PM 77.0 °F 64.4 °F 65% 29.77 in 10.0 mi North 11.5 mph - N/A   Clear
8:15 PM 75.2 °F 64.4 °F 69% 29.77 in 10.0 mi North 12.7 mph 16.1 mph N/A   Partly Cloudy
8:35 PM 75.2 °F 64.4 °F 69% 29.77 in 10.0 mi North 10.4 mph - N/A   Partly Cloudy
8:55 PM 73.4 °F 66.2 °F 78% 29.77 in 10.0 mi North 8.1 mph - N/A   Clear
9:15 PM 73.4 °F 66.2 °F 78% 29.78 in 10.0 mi North 6.9 mph - N/A   Partly Cloudy
9:35 PM 71.6 °F 66.2 °F 83% 29.78 in 10.0 mi North 5.8 mph - N/A   Mostly Cloudy
9:55 PM 71.6 °F 66.2 °F 83% 29.79 in 10.0 mi NNW 5.8 mph - N/A   Overcast
10:15 PM 71.6 °F 66.2 °F 83% 29.79 in 10.0 mi NNW 8.1 mph - N/A   Overcast
10:35 PM 68.0 °F 66.2 °F 94% 29.79 in 10.0 mi NNW 8.1 mph - N/A   Mostly Cloudy
10:55 PM 68.0 °F 66.2 °F 94% 29.79 in 10.0 mi NNW 9.2 mph - N/A   Mostly Cloudy
11:15 PM 68.0 °F 66.2 °F 94% 29.80 in 10.0 mi NNW 8.1 mph - N/A   Mostly Cloudy
11:35 PM 68.0 °F 66.2 °F 94% 29.79 in 10.0 mi NNW 8.1 mph - N/A   Overcast
11:55 PM 66.2 °F 66.2 °F 100% 29.79 in 10.0 mi North 8.1 mph - N/A   Mostly Cloudy